Pardubice, Czech Republic

5:24 AM CEST on April 25, 2018 (GMT +0200)
Pardubice

Weather History for LKPD - June, 2013

Change the Weather History Date:

Saturday, June 8, 2013

  Actual Average Record
Temperature  
Mean Temperature 64 °F -  
Max Temperature 77 °F - - ()
Min Temperature 51 °F - - ()
Degree Days  
Heating Degree Days 1    
Growing Degree Days 14 (Base 50)    
Moisture  
Dew Point 56 °F    
Average Humidity 84    
Maximum Humidity 100    
Minimum Humidity 44    
Precipitation  
Precipitation 0.00 in - - ()
Sea Level Pressure  
Sea Level Pressure 30.01 in    
Wind  
Wind Speed 1 mph ()    
Max Wind Speed 7 mph    
Max Gust Speed -    
Visibility 2.9 miles    
Events Fog , Thunderstorm    
T = Trace of Precipitation, MM = Missing Value Source: Averaged Metar Reports

Daily Weather History Graph

Daily Weather History Graph

Search for Another Location

Airport or City:

Astronomy

Jun. 08, 2013 Rise Set
Actual Time 4:48 AM CEST 9:03 PM CEST
Civil Twilight 4:05 AM CEST 9:47 PM CEST
Nautical Twilight 3:01 AM CEST 10:51 PM CEST
Astronomical Twilight 1:28 AM CEST 12:23 AM CEST
Moon 4:49 AM CEST (6/8) 8:46 PM CEST (6/8)
Length of Visible Light 17h 42m
Length of Day
16h 14m
Waning Crescent, 0% of the Moon is Illuminated
Jun 8
Waning Crescent
Jun 8
New
Jun 16
First Quarter
Jun 23
Full
Jun 30
Last Quarter

Hourly Weather History & Observations

Time (CEST) Temp. Dew Point Humidity Pressure Visibility Wind Dir Wind Speed Gust Speed Precip Events Conditions
12:00 AM 55.4 °F 55.4 °F 100% 30.06 in - Calm Calm - N/A   Clear
1:00 AM 53.6 °F 53.6 °F 100% 30.06 in 5.0 mi Variable 1.2 mph - N/A   Unknown
2:00 AM 53.6 °F 53.6 °F 100% 30.06 in 4.3 mi Calm Calm - N/A   Mostly Cloudy
2:21 AM 51.8 °F 51.8 °F 100% 30.06 in 0.6 mi Variable 1.2 mph - N/A   Mostly Cloudy
2:31 AM 51.8 °F 51.8 °F 100% 30.06 in 0.3 mi Calm Calm - N/A Fog Fog
2:42 AM 51.8 °F 51.8 °F 100% 30.06 in 0.3 mi Calm Calm - N/A Fog Fog
3:00 AM 51.8 °F 51.8 °F 100% 30.06 in 0.3 mi Calm Calm - N/A Fog Fog
4:00 AM 53.6 °F 53.6 °F 100% 30.06 in 0.2 mi Calm Calm - N/A Fog Fog
5:00 AM 53.6 °F 53.6 °F 100% 30.06 in 0.1 mi SSW 1.2 mph - N/A Fog Fog
6:00 AM 53.6 °F 53.6 °F 100% 30.06 in 0.1 mi Calm Calm - N/A Fog Fog
7:00 AM 53.6 °F 53.6 °F 100% 30.06 in 0.1 mi Variable 1.2 mph - N/A Fog Fog
8:00 AM 55.4 °F 55.4 °F 100% 30.06 in 0.1 mi Calm Calm - N/A Fog Fog
8:37 AM 57.2 °F 57.2 °F 100% 30.06 in 0.5 mi Calm Calm - N/A Fog Fog
9:00 AM 59.0 °F 59.0 °F 100% 30.06 in 0.9 mi Calm Calm - N/A   Mostly Cloudy
9:30 AM 60.8 °F 60.8 °F 100% 30.06 in 1.9 mi Variable 3.5 mph - N/A   Mostly Cloudy
10:00 AM 62.6 °F 60.8 °F 94% 30.06 in 3.1 mi Variable 2.3 mph - N/A   Mostly Cloudy
11:00 AM 68.0 °F 59.0 °F 73% 30.04 in 6.2 mi Variable 2.3 mph - N/A   Scattered Clouds
12:00 PM 71.6 °F 59.0 °F 64% 30.04 in 6.2 mi Variable 2.3 mph - N/A   Scattered Clouds
1:00 PM 75.2 °F 57.2 °F 53% 30.01 in 6.2 mi Variable 3.5 mph - N/A   Scattered Clouds
2:00 PM 75.2 °F 55.4 °F 50% 29.98 in 6.2 mi Variable 3.5 mph - N/A   Scattered Clouds
3:00 PM 77.0 °F 55.4 °F 47% 29.98 in 6.2 mi NNW 4.6 mph - N/A   Scattered Clouds
4:00 PM 77.0 °F 53.6 °F 44% 29.95 in 6.2 mi Variable 2.3 mph - N/A   Scattered Clouds
5:00 PM 75.2 °F 57.2 °F 53% 29.92 in - ENE 4.6 mph - N/A   Clear
6:00 PM 73.4 °F 60.8 °F 65% 29.92 in - ESE 6.9 mph - N/A   Clear
7:00 PM 71.6 °F 59.0 °F 64% 29.92 in 6.2 mi East 5.8 mph - N/A Thunderstorm Mostly Cloudy
8:00 PM 69.8 °F 59.0 °F 68% 29.92 in 6.2 mi ESE 3.5 mph - N/A   Scattered Clouds
9:00 PM 66.2 °F 60.8 °F 83% 29.92 in - Variable 1.2 mph - N/A   Clear
10:00 PM 62.6 °F 59.0 °F 88% 29.92 in - East 5.8 mph - N/A   Clear
11:00 PM 62.6 °F 59.0 °F 88% 29.92 in - WSW 1.2 mph - N/A   Clear